Weather History for Tallahassee, FL

Change the Weather History Date:

Thursday, July 18, 2013

  Actual Average Record
Temperature  
Mean Temperature 84 °F 82 °F  
Max Temperature 92 °F 92 °F 103 °F (2000)
Min Temperature 75 °F 72 °F 65 °F (1974)
Degree Days  
Heating Degree Days 0    
Month to date heating degree days 0  
Since 1 June heating degree days 0  
Since 1 July heating degree days 0  
Cooling Degree Days 19    
Month to date cooling degree days 285  
Year to date cooling degree days 1267  
Since 1 June cooling degree days 805  
Growing Degree Days 33 (Base 50)    
Moisture  
Dew Point 69 °F    
Average Humidity 65    
Maximum Humidity 88    
Minimum Humidity 41    
Precipitation  
Precipitation 0.00 in 0.23 in 8.21 in (1964)
Month to date precipitation 6.91 4.10  
Year to date precipitation 36.62 33.49  
Sea Level Pressure  
Sea Level Pressure 30.10 in    
Wind  
Wind Speed 4 mph (ESE)    
Max Wind Speed 15 mph    
Max Gust Speed 44 mph    
Visibility 10 miles    
Events      
T = Trace of Precipitation, MM = Missing Value Source: NWS Daily Summary

Daily Weather History Graph

Daily Weather History Graph

Search for Another Location

Airport:

Trip Planner

Search our weather history database for the weather conditions in past years. The results will help you decide how hot, cold, wet, or windy it might be!

Date:

Astronomy

Jul. 18, 2013 Rise Set
Actual Time 6:47 AM EDT 8:39 PM EDT
Civil Twilight 6:20 AM EDT 9:06 PM EDT
Nautical Twilight 5:48 AM EDT 9:38 PM EDT
Astronomical Twilight 5:13 AM EDT 10:13 PM EDT
Moon 4:37 PM EDT (7/18) 2:33 AM EDT (7/18)
Length of Visible Light 14h 45m
Length of Day
13h 52m
Waxing Gibbous, 77% of the Moon is Illuminated
Jul 18
Waxing Gibbous
Jul 22
Full
Jul 29
Last Quarter
Aug 6
New
Aug 14
First Quarter

Hourly Weather History & Observations

Time (EDT) Temp. Heat Index Dew Point Humidity Pressure Visibility Wind Dir Wind Speed Gust Speed Precip Events Conditions
12:53 AM 77.0 °F - 73.0 °F 88% 30.14 in 10.0 mi Calm Calm - N/A   Mostly Cloudy
1:53 AM 78.1 °F - 72.0 °F 81% 30.13 in 10.0 mi ESE 4.6 mph - N/A   Clear
2:53 AM 77.0 °F - 71.1 °F 82% 30.11 in 10.0 mi Calm Calm - N/A   Clear
3:53 AM 77.0 °F - 71.1 °F 82% 30.11 in 10.0 mi Calm Calm - N/A   Clear
4:53 AM 75.9 °F - 72.0 °F 87% 30.09 in 10.0 mi Calm Calm - N/A   Clear
5:53 AM 75.9 °F - 71.1 °F 85% 30.09 in 10.0 mi Calm Calm - N/A   Scattered Clouds
6:12 AM 75.2 °F - 69.8 °F 83% 30.10 in 10.0 mi Calm Calm - N/A   Mostly Cloudy
6:53 AM 75.0 °F - 71.1 °F 87% 30.10 in 10.0 mi ESE 3.5 mph - N/A   Scattered Clouds
7:53 AM 75.9 °F - 71.1 °F 85% 30.12 in 10.0 mi East 5.8 mph - N/A   Partly Cloudy
8:23 AM 77.0 °F - 71.6 °F 83% 30.13 in 10.0 mi East 5.8 mph - N/A   Mostly Cloudy
8:53 AM 77.0 °F - 71.1 °F 82% 30.14 in 10.0 mi East 6.9 mph - N/A   Mostly Cloudy
9:43 AM 78.8 °F - 71.6 °F 78% 30.15 in 10.0 mi ESE 6.9 mph - N/A   Mostly Cloudy
9:53 AM 79.0 °F - 72.0 °F 79% 30.15 in 10.0 mi East 5.8 mph - N/A   Mostly Cloudy
10:53 AM 82.0 °F 86.7 °F 72.0 °F 71% 30.15 in 10.0 mi Variable 4.6 mph - N/A   Scattered Clouds
11:53 AM 84.9 °F 88.2 °F 68.0 °F 57% 30.15 in 10.0 mi East 6.9 mph - N/A   Scattered Clouds
12:53 PM 89.1 °F 91.0 °F 64.9 °F 45% 30.14 in 10.0 mi ENE 8.1 mph - N/A   Scattered Clouds
1:53 PM 89.1 °F 91.0 °F 64.9 °F 45% 30.13 in 10.0 mi Variable 4.6 mph - N/A   Partly Cloudy
2:53 PM 91.0 °F 92.6 °F 64.0 °F 41% 30.10 in 10.0 mi ESE 10.4 mph - N/A   Partly Cloudy
3:53 PM 91.0 °F 92.6 °F 64.0 °F 41% 30.07 in 10.0 mi South 3.5 mph - N/A   Scattered Clouds
4:53 PM 91.0 °F 92.6 °F 64.0 °F 41% 30.04 in 10.0 mi SE 4.6 mph - N/A   Scattered Clouds
5:53 PM 90.0 °F 90.6 °F 63.0 °F 40% 30.04 in 10.0 mi East 5.8 mph - N/A   Scattered Clouds
6:53 PM 90.0 °F 92.4 °F 66.0 °F 45% 30.04 in 10.0 mi ENE 6.9 mph - N/A   Partly Cloudy
7:53 PM 89.1 °F 91.3 °F 66.0 °F 46% 30.05 in 10.0 mi East 4.6 mph - N/A   Partly Cloudy
8:53 PM 84.0 °F 88.4 °F 70.0 °F 63% 30.05 in 10.0 mi South 3.5 mph - N/A   Partly Cloudy
9:53 PM 82.0 °F 86.3 °F 71.1 °F 69% 30.07 in 10.0 mi Calm Calm - N/A   Partly Cloudy
10:53 PM 79.0 °F - 71.1 °F 77% 30.09 in 10.0 mi Calm Calm - N/A   Partly Cloudy
11:53 PM 78.1 °F - 71.1 °F 79% 30.09 in 10.0 mi Calm Calm - N/A   Clear